彩虹-1 2星 (RADUGA-1 2)

导读

RADUGA 1-2(虹1-2)是独联体(CIS)于1990年12月27日发射的第二代“虹”系列地球同步轨道通信卫星,由应用力学科研生产联合体基于KAUR-3平台研制,发射质量约2320千克,配置6路C频段转发器,设计寿命3年。该卫星主要承担东半球(极区除外)军事通信、电视转播及电报电话业务,是苏联解体后独联体早期航天部署的重要组成部分。

基本信息
目录编号:
21038
目录名称:
RADUGA 1-2
国际标识:
1990-116A
轨道中心:
EARTH
卫星名称:
彩虹-1 2星
卫星全名:
彩虹-1 2星 (RADUGA-1 2)
卫星状态:
在轨 (已飞行12960 天)
发射日期:
1990-12-27 UTC
国别 :
俄罗斯(独联体) (CIS)
星等 :
--
轨道信息
数据来源 国际轨道数据 AOE轨道数据
星历时间 2026-06-20T07:04:05+0800
1天前
查看轨道信息
2026-06-21T07:00:00+0800
15小时前
查看轨道信息
半长轴 42180.659km 42180.771km
偏心率 0.000442 0.0004574
轨道倾角 12.874° 12.874°
近地点辐角 137.705° 135.583°
升交点赤经 337.918° 337.911°
平近点角 217.169° 219.053°
近地点 35783.878km 35783.34km
远地点 35821.166km 35821.928km
周期 1436.911分钟 1436.916分钟
每日圈数 1.00215 1.002146
详细信息
平衡模式:
三轴稳定
覆盖范围:
全球
运营商:
俄罗斯国家航天集团
运营商所在国:
俄罗斯
制造商(研发单位):
普里克拉德诺伊·梅哈尼基设计局
制造商所在国:
俄罗斯联邦
使用方式:
暂无
卫星简介
彩虹卫星(Raduga, Gran)是苏联用于军事和通信目的的一系列地球静止通信卫星。彩虹卫星旨在支持军事通信、Orbita地面电视网络,并在整个东半球(极地地区除外)提供电话和电报通信。该卫星已退役。
2D轨道图
3D轨道图
轨道高度分析图
轨道倾角分析图
轨道综合分析图
查看轨道综合分析图